THORAD AGENA D DEB, 14467

Orbit data source: Space-Track

THORAD AGENA D DEB, 14467 is space debris in SSO originally from a launch on Wed, 08 Apr 1970 UTC launched from the Air Force Western Test Range (AFWTR). Debris objects in space refer to the collection of defunct objects orbiting the Earth. Examples of debris include non-operational satellites, rocket bodies, and fragments generated from explosions, collisions, or faulty payload assembly.

Loading next visibility...
Identifier
14467, 1970-025NT
Orbit
SSO
Country
Flag of USUS
Related business
Manufacturer
Unknown
Mission
Spacecraft
Bus & Motor
Unknown
Mass
Unknown
Launch date (UTC)
1970-04-08 (56 years ago)
Launch vehicle
Unknown
Launch site
Air Force Western Test Range (AFWTR)
Object type
Payload
Rocket body
Debris
Shape & HBR
Unknown shape, 0.1 m
Radar Cross Section
Small (<0.1 m²)

Expand to show TLE details & history
Last TLE update: 10 hours ago

TLE from 10 hours ago
0 THORAD AGENA D DEB
1 14467U 70025NT  25299.62761631  .00000396  00000-0  55445-3 0  9999
2 14467 100.0635 167.9107 0001331 254.9480 171.3216 13.64396168129943
Epoch: 2025-10-26T15:03Z
TLE epoch observation values (Epoch: 2025-10-26T15:03:46.049Z)
Latitude
64.42885°
Longitude
-114.92452°
Altitude
1,031.747 km
Speed
7.341 km/s
True Right ascension
09h 45m 02s
True Declination
64° 17' 59"
Sunlit
Object was in daylight at epoch
Visualization orbit readout
Latitude
Unknown
Longitude
Unknown
Altitude
Unknown
Speed
Unknown
Apparent Right ascension
Unknown
Apparent Declination
Unknown
Sunlit
N/A
Visualization observer readout
Local Sidereal Time
20:12:49
Azimuth
Unknown
Elevation
Unknown
Doppler factor
Unknown
Orbital elements
Apogee altitude
1,018.044 km
Perigee altitude
1,016.075 km
Semi-major axis
7,395.197 km
Eccentricity
0.00013
Inclination
100.0635°
RAAN
167.9107°
Arg. of periapsis
254.948°
True anomaly
171.3239°
Mean anomaly
171.3216°
Eccentric anomaly
171.32275°
Mean motion
3.41286 °/min
Orbital period
105.48 mins
BSTAR
0.00055445
Loading maneuver chart data...
Computing Atmospheric mass density...

Documentation

Showing up to 5 results
|